Location: Cambroso
(45.2833°N, 12.0850°E)
Time: 18:57:27
(UTC+00:00)

EXPRESS MD2 - Pass Details

Date: 21 January 2021
Orbit: 260 x 3983 km, 49.9° (Epoch: 04 March)

Event Time Altitude Azimuth Distance (km) Brightness Sun altitude
Rises 17:22:14 0° 295° (WNW) 5,329 9.2 -13.7°
Reaches altitude 10° 17:26:43 10° 294° (WNW) 3,676 8.3 -14.5°
Maximum altitude 17:34:57 75° 212° (SSW) 837 4.2 -15.9°
Enters shadow 17:38:03 18° 128° (SE) 1,479 5.1 -16.4°
